Regional Weather Roundup
Issued by NWS

Home | Current Version | Previous Version | Graphics & Text | Print | Product List | Glossary On
Versions: 1 2 3 4 5 6 7 8 9 10 11 12 13 14 15 16 17 18 19 20 21 22 23 24 25 26 27 28 29 30 31 32 33 34 35 36 37 38 39 40 41 42 43 44 45 46 47 48 49 50
000
ASUS43 KOAX 180910
RWRNE

WEATHER ROUNDUP FOR NEBRASKA
NATIONAL WEATHER SERVICE OMAHA NE
400 AM CDT FRI AUG 18 2017

NOTES: SATELLITE DATA IS BEING USED TO AUGMENT CLOUD COVER ABOVE
       12000 FEET.
       "FAIR" INDICATES FEW OR NO CLOUDS BELOW 12,000 FEET WITH NO
       SIGNIFICANT WEATHER AND/OR OBSTRUCTIONS TO VISIBILITY.


NEZ001>004-019>022-054>056-181000-
NEBRASKA PANHANDLE

CITY           SKY/WX    TMP DP  RH WIND       PRES   REMARKS
SCOTTSBLUFF    CLEAR     54  49  83 NW6       30.10S
ALLIANCE       CLEAR     49  47  93 MISG      30.08S
CHADRON        CLEAR     52  49  89 W8        30.05S
GORDON         FAIR      51  48  87 W3        30.04S
KIMBALL        CLOUDY    54  50  89 NW7       30.15S
SIDNEY         CLOUDY    54  49  83 NW10      30.11F
$$

NEZ057>060-069>072-079>082-181000-
SOUTHWEST NEBRASKA

CITY           SKY/WX    TMP DP  RH WIND       PRES   REMARKS
NORTH PLATTE   CLOUDY    60  57  89 CALM      30.01F
IMPERIAL       PTCLDY    58  55  90 N5        30.02S
LEXINGTON      PTCLDY    65  57  74 E3        29.99R
MCCOOK         CLOUDY    64  58  80 NE5       29.99R
OGALLALA       CLEAR     60  56  89 CALM      30.02F
$$

NEZ005>010-023>029-035>040-094-181000-
NORTH CENTRAL NEBRASKA

CITY           SKY/WX    TMP DP  RH WIND       PRES   REMARKS
VALENTINE      CLEAR     60  54  80 SW6       29.97R
AINSWORTH      CLEAR     59  58  97 SW12      29.97S
BROKEN BOW     CLEAR     61  58  90 NW3       29.97F
O`NEILL        CLOUDY    60  60 100 CALM      29.93R
ORD            PTCLDY    61  57  87 S5        29.91S
THEDFORD       CLEAR     56  55  96 W5        30.02S
$$

NEZ041-046>049-061>064-073>077-083>087-181000-
SOUTH CENTRAL NEBRASKA

CITY           SKY/WX    TMP DP  RH WIND       PRES   REMARKS
GRAND ISLAND   MOCLDY    64  61  90 SE7       29.97F
AURORA         CLOUDY    64  60  89 CALM      29.99F
HASTINGS       CLOUDY    66  57  72 NE10      30.01R
HEBRON         MOCLDY    67  61  82 CALM      29.94R
HOLDREGE       CLOUDY    64  57  79 NE7       30.01R
KEARNEY        CLOUDY    65  58  78 E10       29.98F
YORK           CLOUDY    64  61  88 N5        29.99R
$$

NEZ011>018-030>034-042>045-181000-
NORTHEAST NEBRASKA

CITY           SKY/WX    TMP DP  RH WIND       PRES   REMARKS
NORFOLK        LGT RAIN  64  60  87 S16       29.91F
ALBION         MOCLDY    65  60  83 E6        29.88F
BLAIR          LGT RAIN  67  63  84 CALM      29.93F
COLUMBUS       LGT RAIN  64  62  93 CALM      29.97R
FREMONT        MOCLDY    66  62  88 CALM      29.92F
TEKAMAH        PTCLDY    65  62  90 CALM      29.91F
WAYNE          CLOUDY    64  62  92 CALM      29.87F
$$

NEZ050>053-065>068-078-088>093-181000-
SOUTHEAST NEBRASKA

CITY           SKY/WX    TMP DP  RH WIND       PRES   REMARKS
LINCOLN        CLOUDY    68  61  78 CALM      29.95F
OMAHA EPPLEY   CLOUDY    69  61  75 NE5       29.94R
BEATRICE       CLOUDY    68  62  80 N7        29.96R
FALLS CITY     CLOUDY    61  58  90 CALM      29.91F
NEBRASKA CITY  CLOUDY    67  63  86 NW6       29.94R
PLATTSMOUTH    CLOUDY    65  60  84 NW5       29.94R
$$

NEZ044-045-051>053-067-181000-
OMAHA AREA

CITY           SKY/WX    TMP DP  RH WIND       PRES   REMARKS
OMAHA EPPLEY   CLOUDY    69  61  75 NE5       29.94R
BLAIR          LGT RAIN  67  63  84 CALM      29.93F
FREMONT        MOCLDY    66  62  88 CALM      29.92F
MILLARD        CLOUDY    72  63  73 N3        29.93F
OFFUTT AFB     CLOUDY    65  61  85 NW5       29.94R
PLATTSMOUTH    CLOUDY    65  60  84 NW5       29.94R
WAHOO          PTSUNNY   65  63  94 CALM      29.93F
$$




USA.gov is the U.S. government's official web portal to all federal, state and local government web resources and services.